Vorticity
3 3 4 4 4 5 5 5 5 5 5 4 4 4 4 4 3 3 2 2 2 2 2 2 2 2 2 3 3 3 2 1 -0 -1 -1 -0 1 1 2 2 2 2 3 4 6 6 6 6 7 7 6 5 4 5 7 7 7 7 6 6 5 5 5 6 8 9 9 9 9
4 4 3 3 4 4 4 4 4 4 4 4 4 4 4 4 3 3 3 3 3 2 2 2 2 2 2 2 3 3 2 1 0 -0 -0 -0 0 1 1 2 2 3 4 5 6 7 7 7 7 7 6 4 5 7 8 8 8 8 7 7 6 5 4 6 8 9 9 9 8
5 5 5 4 4 4 4 4 4 4 4 4 4 4 3 3 3 3 3 3 3 2 2 2 2 2 2 2 3 3 3 2 1 1 1 1 1 1 2 2 2 3 4 5 5 6 6 7 6 5 4 4 5 6 6 7 7 6 5 4 4 4 5 6 8 9 9 8 8
8 7 7 7 6 6 6 5 5 5 5 4 4 4 4 3 3 3 3 3 3 3 3 3 3 3 3 2 2 3 3 2 2 2 2 2 2 2 2 2 2 3 4 5 5 5 4 3 3 4 5 5 4 5 5 5 4 3 3 3 3 5 6 8 9 9 8 8 7
11 10 10 9 9 9 8 7 7 7 6 6 5 5 5 4 4 4 4 4 3 3 3 3 3 3 3 3 3 3 3 3 3 3 3 3 3 2 2 3 4 4 5 5 5 4 3 3 3 4 5 4 4 4 4 3 3 2 2 3 5 6 7 9 9 9 8 7 6
13 13 13 13 12 12 11 11 10 9 8 7 7 7 6 6 5 5 5 5 4 4 3 3 3 3 3 4 4 4 4 4 4 4 3 3 3 3 4 5 5 5 6 7 5 4 3 3 4 4 4 4 4 4 4 3 3 3 3 5 6 8 9 10 10 9 8 7 6
15 15 15 15 15 14 14 13 12 11 10 10 9 9 8 8 7 7 6 6 5 5 5 4 4 4 4 4 4 4 5 5 5 5 5 4 4 4 5 5 5 6 6 4 4 4 4 4 5 6 7 7 6 5 5 4 5 6 7 7 7 9 10 11 10 9 8 7 6
17 17 17 17 16 15 15 14 14 13 12 12 11 11 10 10 9 9 8 8 7 7 6 6 5 5 5 5 5 5 5 5 5 6 6 6 7 7 7 7 6 5 5 4 5 6 7 7 7 8 8 7 6 6 6 8 9 9 8 7 8 10 11 11 10 9 8 7 7
20 19 18 17 16 15 15 14 14 13 13 13 13 12 11 11 11 10 10 10 9 9 8 8 8 7 7 7 7 6 6 6 6 7 7 8 8 8 7 7 6 6 7 8 8 8 8 8 8 8 7 5 6 8 11 12 10 7 6 6 9 10 11 11 10 9 8 8 8
22 20 19 18 17 16 15 14 14 14 14 13 13 13 12 12 12 12 11 11 10 10 11 11 10 10 9 9 8 8 7 7 7 8 9 10 9 7 7 8 9 10 10 10 9 8 8 8 7 6 5 5 10 13 15 11 5 4 5 8 9 10 10 10 9 9 9 8 8
26 24 22 21 20 18 17 16 16 15 14 14 14 13 13 13 12 12 12 12 12 12 12 12 12 11 11 10 9 9 8 8 9 10 10 10 10 10 10 11 10 10 9 9 7 7 6 5 4 3 5 11 18 18 12 2 1 3 7 10 10 9 9 9 9 9 9 9 9
29 28 26 24 23 22 21 20 18 17 16 15 15 14 14 13 13 12 12 13 13 13 13 13 12 12 11 10 10 10 10 10 10 10 10 10 10 11 11 11 11 10 10 9 8 7 5 3 4 8 14 22 21 13 2 -4 1 5 9 10 10 9 9 8 9 9 9 8 9
27 27 27 26 26 25 24 24 22 20 19 18 17 16 15 14 13 13 13 13 13 13 13 13 12 12 11 11 10 11 11 11 10 10 10 10 11 10 10 10 11 11 10 10 9 8 7 8 12 18 22 22 9 -2 -7 -3 4 8 10 9 9 9 9 9 9 8 8 8 11
22 23 24 24 25 25 26 26 25 24 23 21 19 18 17 16 15 14 14 14 13 13 13 13 12 12 12 11 11 11 11 11 11 10 11 11 11 11 10 10 11 12 11 10 11 13 15 19 24 25 19 5 -7 -11 -8 1 6 9 9 8 8 9 9 9 8 7 7 9 15
14 17 20 20 21 23 24 25 26 26 25 24 22 21 19 18 17 16 15 14 14 13 13 12 12 12 12 12 12 11 11 11 11 11 11 10 10 10 11 11 12 12 12 13 17 22 27 29 26 17 5 -9 -12 -9 -2 5 8 9 8 8 8 9 9 9 8 8 9 12 21
8 12 15 16 17 19 20 22 24 25 25 25 24 23 22 20 19 18 16 15 15 14 13 13 13 12 12 12 12 12 12 11 11 11 10 9 10 11 12 12 12 13 14 16 19 23 24 21 12 2 -6 -9 -5 1 6 9 9 8 8 8 9 10 10 9 8 9 12 17 23
10 10 11 12 14 15 17 19 21 22 23 24 24 24 23 22 21 19 18 16 15 14 14 13 13 13 13 13 13 12 12 11 11 10 10 10 12 12 13 14 14 14 14 14 10 7 3 -1 -3 -4 -2 1 5 8 10 10 9 8 8 9 10 10 10 10 10 11 14 18 22
12 9 9 11 13 15 17 18 19 21 21 22 22 23 23 22 22 20 19 18 16 15 15 14 14 14 13 13 13 12 12 11 11 10 10 12 12 13 14 15 15 15 14 11 4 -2 -6 -6 -3 2 6 9 10 10 10 9 8 8 9 10 11 11 11 11 12 12 13 15 21
15 13 13 15 17 19 20 20 21 21 21 21 21 22 22 23 22 21 20 19 18 17 16 15 15 14 14 13 13 13 12 11 11 11 12 12 11 12 13 14 14 13 13 11 7 4 3 4 7 9 10 10 10 9 9 8 9 9 10 11 11 11 11 13 14 13 11 9 16
22 21 22 23 23 24 24 23 23 22 22 22 22 22 23 23 23 22 21 20 19 17 16 16 16 15 14 14 13 13 13 12 12 12 13 12 11 11 11 12 12 12 12 11 10 10 11 11 11 11 10 10 9 9 9 9 10 10 11 11 11 11 13 14 16 12 7 2 7
25 25 26 26 26 26 26 25 25 24 24 24 24 25 25 25 24 23 22 21 20 18 17 16 16 15 15 14 13 13 13 13 12 12 13 13 12 12 11 11 11 11 11 11 11 12 12 12 11 11 10 10 9 9 9 10 11 11 10 10 11 12 14 15 13 6 -1 -3 4
21 23 24 25 26 26 26 26 26 25 26 26 27 27 27 27 26 25 24 23 21 19 18 17 16 16 15 14 14 13 13 13 13 13 13 13 13 12 11 11 11 11 12 12 12 12 12 12 11 11 10 9 9 10 10 11 11 11 11 11 10 12 14 16 12 7 5 9 13
17 19 21 23 25 26 27 27 27 26 27 27 28 28 28 28 27 26 25 24 22 20 19 18 17 16 16 15 15 14 14 14 13 13 13 14 13 12 10 10 10 11 12 13 13 12 12 11 11 10 10 10 10 11 11 12 12 12 10 7 12 20 28 30 25 21 17 15 14
16 17 19 21 24 26 27 28 28 28 27 27 28 28 28 27 27 26 26 24 23 21 19 18 17 16 16 15 15 15 14 15 14 14 14 15 15 13 11 12 14 16 17 17 15 13 12 11 10 10 10 10 11 11 12 13 14 10 4 -3 4 13 18 18 13 9 5 4 4
17 17 18 20 23 25 27 28 28 28 27 27 26 26 26 26 26 26 25 24 23 21 19 18 17 16 15 15 15 15 16 16 17 17 15 15 14 14 15 18 22 22 19 15 14 13 12 10 10 10 10 11 12 13 14 15 14 8 0 -5 -4 -3 -3 -4 -4 -4 -3 -1 1
18 18 18 20 22 24 26 27 27 27 26 25 24 24 23 24 24 24 24 24 23 21 19 17 16 16 15 16 16 17 18 19 19 18 17 16 17 19 22 25 25 18 11 6 9 11 11 11 11 11 11 12 13 15 16 17 14 7 1 -2 -5 -7 -7 -6 -3 -1 1 2 2
20 19 20 21 23 25 26 27 26 25 24 23 22 22 22 21 22 22 23 22 22 21 19 18 17 16 16 17 18 19 20 20 20 20 20 21 22 23 24 24 20 11 3 1 7 10 11 11 11 12 13 13 14 15 16 16 13 9 5 2 1 -0 -0 1 4 6 7 6 3
22 22 23 24 25 25 25 25 24 23 22 21 21 21 20 20 20 20 21 21 21 20 20 19 18 18 19 20 21 21 21 21 22 22 21 20 20 20 19 17 10 5 2 5 9 11 12 12 12 13 14 13 13 12 11 10 7 6 5 5 6 7 8 11 11 10 8 5 1
24 24 25 25 25 24 23 21 20 19 19 19 19 19 19 19 19 19 19 19 20 20 20 20 21 21 22 22 22 22 22 23 19 16 13 14 15 14 11 6 4 4 6 10 11 12 12 13 13 13 11 9 7 6 5 2 0 1 3 7 11 14 15 14 11 8 4 1 -2
26 25 24 23 22 20 19 17 16 16 15 15 16 17 18 19 19 19 19 20 19 19 20 21 21 22 21 21 21 22 20 13 5 5 8 11 9 7 5 5 6 9 11 13 14 14 14 13 10 8 7 7 6 4 0 -4 -4 -0 6 13 15 15 12 9 6 4 2 -1 -6
28 26 25 23 21 20 18 17 16 15 14 14 14 15 16 17 19 19 19 16 18 19 19 20 20 20 20 20 19 14 6 -2 2 6 9 7 5 6 7 9 12 14 15 15 14 12 10 9 11 12 13 11 6 -0 -5 -6 0 8 14 17 13 9 6 4 2 0 -3 -7 -11
32 30 28 27 26 25 24 22 21 19 18 17 16 16 15 15 20 20 18 13 17 18 18 17 17 16 14 11 5 0 -1 3 8 8 6 5 7 9 12 15 16 15 13 10 9 9 11 13 13 11 7 2 -2 -3 -1 5 11 14 14 11 7 5 3 1 -1 -3 -6 -8 -5
33 31 30 29 29 29 29 28 28 27 27 26 25 24 23 23 25 22 17 13 16 16 14 11 8 5 3 1 1 4 8 11 8 7 7 9 13 15 16 15 12 8 6 6 8 9 9 6 2 -1 -2 -2 1 5 8 10 10 9 7 5 4 2 0 -1 -2 -3 -2 0 4
23 24 25 25 25 26 26 27 29 30 31 31 29 27 25 22 20 14 9 7 7 5 4 2 2 4 6 9 12 13 12 10 9 11 14 17 17 15 12 7 5 5 5 6 5 2 -1 -3 -2 -0 3 5 7 8 8 7 6 5 4 3 1 0 -0 0 1 3 5 7 8
6 10 13 14 16 17 17 18 19 19 18 16 14 11 8 5 3 1 -0 1 3 5 8 11 13 15 16 16 14 13 13 14 16 17 18 16 12 7 4 2 3 4 3 2 2 3 5 6 8 9 9 9 9 8 8 7 6 5 3 2 1 2 3 4 5 6 7 8 8
-1 -1 -0 1 2 3 2 1 1 -0 -1 -2 -1 0 2 4 7 10 13 16 18 19 19 19 17 16 15 15 15 16 17 18 16 13 10 6 3 2 2 2 3 4 6 8 10 11 12 13 12 12 11 10 9 7 6 4 3 2 2 3 4 5 5 6 7 7 8 8 9
11 8 5 2 -1 -4 -6 -8 -6 -4 -1 1 6 11 15 18 20 21 21 20 19 17 16 14 14 13 14 14 14 13 12 9 6 4 2 2 3 4 6 8 10 11 12 12 12 12 11 10 10 8 7 6 5 4 3 3 3 4 4 5 5 5 6 7 8 8 9 10 10
23 22 22 20 17 12 8 7 10 12 14 14 13 14 16 18 18 17 16 15 14 14 13 12 10 9 7 5 3 2 1 1 2 3 4 5 7 9 10 11 10 9 8 7 7 6 6 5 5 4 3 3 3 4 4 4 5 5 5 6 6 7 8 9 9 10 11 11 11
28 27 26 26 27 27 26 25 27 28 26 17 11 9 12 17 19 18 15 11 10 9 8 6 3 1 -1 -1 0 2 4 6 6 6 6 7 9 9 8 6 5 4 3 3 3 3 3 3 3 3 3 4 5 5 6 6 6 7 7 8 8 9 10 10 11 11 11 11 12
27 26 24 23 24 24 23 22 25 26 23 18 13 8 8 14 19 17 11 2 1 1 2 3 6 9 12 13 14 14 13 10 8 7 6 7 6 5 3 2 2 2 2 2 2 2 3 4 5 5 6 7 8 8 8 8 8 9 9 10 10 10 11 11 11 12 12 12 12
21 22 22 22 21 20 18 18 20 19 16 14 10 4 1 5 12 12 6 -2 -3 -3 -1 4 15 22 25 24 20 15 11 7 5 4 3 3 2 2 1 1 1 2 3 3 4 5 6 7 8 9 9 9 9 9 9 9 9 10 10 10 11 11 11 11 12 12 12 12 12
Height
5696 5697 5698 5699 5700 5700 5701 5701 5702 5702 5702 5703 5703 5704 5706 5707 5708 5710 5712 5713 5714 5715 5716 5717 5718 5718 5719 5719 5719 5720 5720 5720 5721 5722 5722 5722 5723 5724 5725 5725 5726 5726 5727 5726 5727 5727 5727 5727 5727 5725 5723 5722 5723 5723 5723 5723 5723 5723 5722 5722 5722 5722 5722 5722 5721 5721 5720 5720 5719
5690 5691 5692 5693 5694 5695 5695 5696 5696 5697 5697 5697 5698 5699 5700 5702 5703 5705 5707 5708 5709 5711 5712 5712 5713 5714 5714 5715 5715 5716 5716 5716 5717 5717 5718 5719 5720 5720 5721 5721 5722 5723 5723 5723 5722 5722 5724 5724 5723 5722 5720 5720 5720 5720 5720 5720 5720 5720 5719 5719 5719 5719 5719 5718 5718 5718 5717 5717 5716
5684 5685 5686 5687 5688 5689 5689 5690 5691 5691 5692 5692 5692 5693 5695 5696 5698 5699 5701 5703 5704 5705 5707 5707 5709 5710 5710 5711 5711 5712 5712 5712 5713 5713 5714 5715 5716 5717 5717 5718 5719 5719 5719 5718 5718 5718 5718 5719 5718 5717 5717 5717 5717 5717 5717 5717 5717 5717 5716 5716 5716 5716 5716 5715 5715 5714 5714 5713 5712
5678 5679 5680 5681 5682 5683 5683 5684 5685 5685 5686 5686 5687 5688 5689 5691 5692 5694 5696 5697 5698 5700 5702 5703 5704 5705 5706 5707 5707 5707 5707 5708 5709 5709 5710 5711 5712 5713 5714 5714 5715 5716 5715 5715 5715 5714 5714 5714 5714 5714 5714 5714 5715 5715 5714 5714 5714 5713 5713 5713 5713 5713 5712 5712 5712 5711 5711 5710 5709
5672 5673 5674 5675 5676 5676 5677 5678 5678 5679 5679 5680 5681 5682 5684 5686 5687 5689 5690 5691 5693 5695 5696 5698 5699 5701 5702 5702 5702 5703 5703 5704 5705 5705 5706 5707 5708 5709 5710 5711 5712 5712 5712 5712 5711 5711 5711 5711 5711 5711 5711 5712 5713 5712 5711 5711 5711 5711 5711 5710 5710 5710 5709 5709 5708 5708 5707 5707 5706
5666 5667 5668 5669 5669 5670 5671 5672 5672 5673 5673 5674 5675 5677 5678 5680 5682 5684 5685 5686 5687 5689 5691 5692 5694 5696 5697 5698 5698 5698 5699 5700 5701 5702 5702 5703 5704 5706 5707 5707 5708 5708 5708 5707 5707 5707 5708 5708 5708 5708 5709 5709 5710 5709 5708 5708 5708 5708 5708 5707 5707 5707 5706 5705 5705 5704 5704 5703 5703
5660 5661 5662 5662 5663 5664 5665 5666 5667 5667 5668 5669 5670 5672 5673 5675 5677 5678 5679 5681 5682 5684 5686 5687 5689 5691 5692 5693 5693 5694 5695 5696 5696 5697 5698 5699 5701 5702 5703 5704 5705 5705 5704 5703 5704 5704 5705 5705 5705 5706 5706 5706 5707 5706 5706 5706 5706 5706 5705 5704 5704 5704 5703 5702 5702 5701 5701 5700 5700
5654 5655 5656 5656 5657 5658 5659 5660 5661 5662 5662 5663 5665 5666 5668 5670 5672 5673 5674 5676 5677 5679 5681 5683 5685 5686 5687 5688 5689 5690 5690 5691 5692 5693 5695 5696 5697 5698 5700 5701 5701 5700 5700 5700 5701 5701 5702 5702 5702 5702 5702 5703 5703 5703 5703 5703 5703 5702 5702 5701 5701 5700 5700 5699 5698 5698 5697 5697 5696
5649 5649 5649 5650 5651 5652 5653 5654 5655 5656 5657 5658 5660 5661 5663 5664 5666 5667 5669 5671 5672 5674 5676 5678 5680 5681 5682 5683 5684 5685 5686 5687 5688 5689 5691 5692 5693 5694 5695 5696 5697 5697 5697 5697 5697 5698 5698 5698 5698 5699 5699 5700 5700 5700 5700 5700 5700 5699 5698 5698 5698 5697 5697 5696 5695 5694 5694 5693 5693
5643 5643 5644 5644 5645 5646 5647 5649 5650 5651 5652 5653 5655 5656 5658 5659 5661 5663 5664 5666 5668 5670 5672 5674 5675 5677 5678 5679 5680 5680 5681 5682 5684 5686 5687 5688 5689 5690 5692 5692 5693 5693 5693 5693 5694 5694 5695 5695 5695 5695 5696 5696 5697 5697 5697 5697 5696 5696 5696 5695 5695 5694 5693 5692 5692 5691 5690 5690 5689
5637 5638 5638 5639 5639 5640 5642 5643 5644 5646 5647 5648 5650 5651 5653 5655 5656 5658 5660 5662 5664 5666 5667 5669 5671 5672 5673 5675 5675 5676 5677 5679 5681 5682 5683 5684 5685 5687 5687 5688 5688 5689 5690 5690 5691 5691 5692 5692 5692 5692 5693 5693 5694 5693 5693 5693 5693 5692 5692 5692 5691 5691 5690 5689 5688 5688 5687 5686 5685
5632 5632 5633 5633 5634 5635 5636 5638 5639 5641 5642 5643 5645 5647 5648 5650 5652 5654 5656 5658 5660 5662 5663 5665 5667 5668 5669 5670 5671 5672 5674 5676 5677 5678 5679 5680 5681 5682 5683 5683 5685 5685 5686 5686 5687 5688 5689 5689 5689 5689 5690 5690 5690 5690 5690 5690 5690 5689 5689 5688 5688 5687 5687 5686 5685 5684 5683 5682 5681
5627 5627 5628 5628 5629 5630 5631 5632 5634 5635 5637 5639 5640 5642 5644 5646 5647 5649 5652 5654 5656 5657 5659 5660 5662 5663 5665 5666 5668 5669 5671 5672 5673 5674 5675 5677 5677 5679 5680 5680 5682 5682 5682 5683 5684 5685 5686 5686 5686 5686 5687 5687 5687 5686 5686 5687 5687 5686 5686 5685 5685 5684 5683 5682 5682 5681 5680 5678 5677
5622 5622 5623 5624 5625 5626 5627 5628 5629 5631 5632 5634 5636 5637 5639 5641 5643 5645 5647 5649 5651 5652 5654 5656 5657 5659 5661 5662 5665 5666 5667 5668 5669 5671 5672 5673 5674 5675 5676 5677 5678 5679 5679 5680 5681 5682 5682 5682 5682 5683 5684 5684 5683 5683 5683 5683 5683 5683 5682 5682 5681 5681 5680 5679 5678 5677 5676 5675 5674
5618 5618 5618 5619 5620 5621 5622 5623 5625 5626 5628 5629 5631 5633 5635 5637 5638 5641 5642 5644 5646 5648 5650 5652 5653 5655 5657 5659 5661 5662 5664 5665 5666 5667 5668 5670 5671 5672 5672 5674 5675 5675 5676 5677 5677 5678 5679 5680 5680 5680 5680 5680 5680 5681 5681 5681 5680 5680 5679 5678 5678 5677 5677 5676 5675 5674 5673 5671 5670
5614 5614 5615 5615 5616 5617 5618 5619 5620 5622 5623 5625 5627 5628 5630 5632 5634 5636 5638 5640 5642 5643 5645 5647 5650 5652 5654 5656 5657 5659 5660 5661 5662 5664 5665 5667 5667 5668 5669 5671 5671 5672 5673 5674 5675 5676 5676 5677 5677 5677 5677 5678 5678 5678 5678 5677 5677 5676 5676 5675 5675 5674 5673 5673 5672 5671 5669 5667 5666
5609 5610 5611 5612 5612 5613 5613 5614 5616 5617 5619 5621 5622 5624 5626 5628 5629 5631 5633 5635 5637 5639 5642 5644 5646 5648 5651 5652 5654 5655 5656 5657 5659 5661 5662 5664 5664 5665 5666 5667 5668 5669 5670 5671 5672 5673 5673 5674 5674 5674 5675 5675 5675 5675 5674 5674 5673 5673 5672 5672 5672 5671 5670 5670 5669 5667 5666 5665 5665
5605 5606 5607 5607 5608 5608 5609 5610 5611 5613 5615 5616 5618 5620 5621 5623 5625 5627 5629 5631 5633 5636 5638 5640 5642 5645 5647 5648 5650 5651 5653 5654 5656 5658 5659 5660 5661 5662 5663 5664 5665 5666 5667 5668 5669 5670 5670 5671 5671 5672 5672 5672 5672 5671 5671 5671 5670 5670 5670 5669 5668 5667 5667 5666 5665 5664 5663 5663 5662
5601 5602 5602 5603 5603 5604 5605 5606 5607 5609 5610 5612 5613 5615 5617 5619 5621 5623 5625 5627 5630 5632 5634 5637 5639 5641 5643 5645 5646 5648 5649 5651 5653 5655 5656 5657 5658 5659 5660 5661 5662 5663 5665 5666 5666 5666 5667 5667 5668 5668 5668 5668 5668 5668 5668 5668 5667 5667 5667 5666 5665 5664 5663 5662 5662 5661 5660 5661 5659
5597 5597 5598 5598 5599 5600 5601 5602 5603 5605 5606 5608 5609 5611 5613 5615 5617 5619 5622 5624 5626 5629 5631 5633 5635 5638 5640 5642 5643 5645 5646 5648 5650 5651 5652 5654 5655 5656 5657 5658 5659 5661 5662 5662 5662 5663 5664 5664 5665 5665 5665 5665 5665 5665 5665 5665 5664 5664 5663 5662 5662 5661 5660 5659 5658 5657 5657 5657 5656
5593 5593 5594 5594 5595 5596 5597 5598 5600 5601 5602 5604 5606 5607 5610 5612 5614 5616 5618 5620 5623 5625 5627 5630 5632 5634 5636 5638 5640 5642 5643 5645 5647 5648 5649 5651 5652 5653 5655 5656 5657 5657 5658 5659 5659 5660 5661 5661 5661 5662 5662 5662 5662 5662 5662 5662 5661 5661 5660 5659 5658 5657 5656 5655 5655 5654 5654 5654 5653
5590 5590 5590 5591 5592 5592 5594 5595 5597 5598 5600 5601 5603 5605 5607 5608 5611 5613 5615 5617 5620 5622 5624 5627 5629 5631 5633 5635 5637 5639 5640 5642 5643 5645 5647 5648 5649 5651 5652 5653 5654 5654 5655 5656 5656 5657 5657 5658 5658 5658 5659 5659 5659 5659 5658 5658 5658 5657 5657 5656 5655 5654 5653 5652 5652 5652 5651 5650 5649
5587 5587 5587 5588 5589 5590 5591 5592 5594 5595 5597 5598 5600 5602 5604 5606 5608 5610 5612 5614 5617 5619 5622 5624 5626 5628 5630 5632 5635 5636 5637 5639 5641 5642 5643 5645 5647 5649 5650 5651 5651 5652 5652 5653 5653 5654 5655 5655 5655 5656 5656 5656 5656 5656 5655 5655 5655 5654 5654 5654 5654 5653 5652 5650 5649 5648 5647 5645 5644
5584 5585 5585 5586 5587 5587 5588 5590 5591 5593 5594 5596 5598 5600 5601 5603 5605 5607 5610 5612 5615 5617 5619 5622 5624 5626 5628 5630 5632 5633 5635 5637 5639 5640 5641 5643 5645 5646 5647 5647 5648 5649 5650 5650 5651 5652 5652 5652 5652 5653 5653 5653 5653 5652 5652 5652 5652 5652 5652 5652 5651 5649 5647 5646 5644 5643 5642 5641 5640
5582 5582 5583 5583 5584 5585 5586 5587 5589 5590 5592 5594 5596 5597 5599 5602 5603 5606 5608 5610 5613 5615 5617 5620 5622 5624 5626 5627 5629 5631 5632 5634 5637 5638 5639 5641 5642 5644 5644 5645 5646 5647 5648 5648 5649 5649 5649 5650 5650 5650 5650 5650 5650 5649 5649 5649 5649 5649 5649 5648 5646 5644 5642 5641 5640 5639 5638 5637 5637
5580 5580 5581 5582 5582 5583 5584 5585 5587 5588 5590 5592 5594 5596 5598 5600 5602 5604 5606 5609 5611 5613 5616 5618 5620 5622 5624 5626 5627 5629 5631 5632 5634 5635 5637 5639 5640 5641 5642 5643 5645 5646 5646 5647 5647 5647 5647 5647 5647 5647 5647 5647 5647 5647 5646 5646 5646 5646 5645 5643 5642 5639 5638 5637 5637 5636 5635 5635 5634
5578 5578 5579 5580 5581 5581 5582 5583 5585 5586 5588 5590 5592 5594 5596 5598 5601 5603 5605 5607 5609 5612 5614 5616 5618 5620 5622 5624 5625 5627 5629 5630 5632 5634 5636 5637 5637 5638 5639 5641 5642 5642 5643 5644 5644 5644 5644 5644 5644 5644 5644 5644 5644 5644 5644 5643 5643 5642 5641 5640 5638 5637 5636 5635 5634 5634 5633 5632 5631
5576 5577 5578 5578 5579 5580 5581 5582 5583 5585 5587 5589 5591 5593 5595 5597 5599 5601 5603 5606 5608 5610 5612 5614 5616 5618 5620 5622 5623 5625 5627 5629 5631 5632 5633 5634 5635 5637 5637 5638 5639 5640 5641 5641 5642 5642 5642 5642 5642 5642 5642 5641 5641 5641 5641 5641 5640 5639 5638 5637 5636 5635 5634 5633 5632 5632 5631 5629 5628
5575 5576 5577 5577 5578 5579 5580 5581 5582 5584 5586 5587 5589 5591 5593 5596 5598 5600 5602 5604 5606 5608 5610 5612 5614 5616 5618 5620 5622 5624 5625 5627 5629 5631 5632 5633 5634 5634 5636 5637 5637 5638 5638 5639 5639 5639 5639 5639 5639 5639 5639 5640 5640 5640 5639 5638 5637 5636 5635 5634 5633 5632 5632 5631 5630 5629 5627 5626 5625
5575 5575 5576 5577 5577 5578 5579 5581 5582 5583 5585 5587 5588 5590 5592 5594 5596 5598 5601 5603 5605 5607 5609 5610 5612 5614 5616 5618 5620 5622 5624 5626 5628 5630 5631 5631 5632 5633 5634 5634 5635 5636 5636 5637 5637 5637 5636 5636 5637 5638 5638 5638 5637 5636 5635 5634 5633 5632 5632 5631 5630 5630 5629 5628 5627 5625 5624 5622 5621
5574 5575 5576 5576 5577 5578 5579 5580 5582 5583 5584 5586 5587 5589 5591 5593 5595 5597 5599 5601 5602 5605 5606 5608 5610 5612 5614 5617 5619 5621 5623 5625 5627 5628 5628 5629 5630 5631 5632 5632 5633 5633 5634 5634 5634 5634 5635 5635 5635 5635 5634 5633 5633 5632 5632 5631 5630 5630 5629 5628 5627 5627 5626 5624 5623 5622 5620 5619 5617
5575 5575 5576 5576 5577 5578 5579 5580 5581 5582 5584 5585 5587 5588 5590 5592 5593 5595 5597 5598 5601 5602 5604 5607 5609 5611 5613 5615 5617 5620 5623 5624 5625 5626 5627 5628 5628 5629 5630 5630 5631 5631 5631 5632 5632 5633 5633 5632 5632 5631 5631 5630 5630 5629 5628 5628 5627 5627 5626 5625 5624 5623 5622 5621 5619 5618 5617 5615 5614
5576 5576 5576 5576 5577 5578 5579 5580 5581 5582 5584 5585 5587 5588 5590 5592 5593 5595 5597 5598 5600 5602 5604 5606 5608 5611 5613 5616 5618 5621 5622 5623 5624 5624 5625 5626 5627 5627 5627 5628 5628 5629 5630 5630 5631 5630 5629 5629 5628 5628 5628 5627 5627 5627 5626 5626 5625 5624 5623 5622 5621 5620 5619 5617 5616 5614 5613 5612 5610
5577 5577 5577 5577 5577 5578 5579 5580 5582 5583 5584 5586 5587 5589 5591 5592 5594 5596 5598 5600 5601 5603 5605 5607 5610 5613 5615 5617 5618 5619 5620 5621 5622 5622 5623 5624 5624 5625 5625 5626 5627 5627 5628 5628 5627 5627 5626 5626 5626 5626 5626 5626 5625 5624 5624 5623 5622 5621 5620 5619 5618 5617 5615 5614 5612 5611 5609 5608 5606
5580 5579 5578 5578 5578 5579 5580 5581 5582 5584 5585 5587 5588 5590 5592 5593 5595 5597 5599 5601 5603 5605 5607 5610 5612 5613 5615 5616 5617 5617 5618 5619 5620 5621 5622 5622 5622 5623 5624 5625 5625 5625 5625 5625 5624 5624 5625 5625 5625 5625 5624 5623 5622 5622 5621 5620 5619 5618 5617 5616 5614 5613 5612 5610 5609 5607 5606 5604 5602
5581 5581 5581 5580 5581 5581 5582 5583 5584 5585 5587 5587 5589 5591 5593 5595 5598 5601 5603 5604 5606 5607 5608 5610 5611 5612 5613 5614 5615 5616 5617 5618 5619 5619 5620 5621 5622 5622 5623 5623 5623 5623 5623 5623 5623 5623 5623 5623 5622 5622 5621 5620 5619 5619 5618 5617 5616 5615 5613 5612 5611 5610 5608 5607 5606 5604 5602 5600 5598
5582 5582 5582 5582 5582 5583 5584 5585 5585 5587 5588 5590 5592 5595 5597 5600 5602 5602 5603 5604 5605 5606 5607 5608 5610 5611 5612 5613 5614 5615 5616 5617 5617 5618 5619 5620 5621 5621 5621 5621 5621 5621 5622 5621 5621 5621 5621 5620 5620 5619 5618 5617 5617 5616 5615 5613 5612 5612 5610 5609 5608 5607 5605 5604 5602 5600 5598 5597 5595
5583 5583 5584 5584 5584 5585 5585 5586 5587 5589 5591 5594 5597 5599 5600 5601 5602 5602 5602 5603 5605 5606 5607 5608 5609 5611 5612 5612 5613 5614 5615 5616 5617 5618 5618 5619 5619 5619 5619 5620 5620 5620 5620 5619 5619 5619 5618 5618 5617 5616 5615 5614 5613 5612 5612 5611 5610 5609 5607 5606 5605 5603 5602 5600 5598 5597 5595 5593 5591
5585 5585 5585 5585 5586 5587 5588 5590 5592 5594 5596 5597 5599 5599 5600 5601 5601 5602 5603 5604 5605 5606 5607 5608 5610 5610 5611 5612 5613 5614 5615 5616 5616 5617 5617 5617 5617 5617 5618 5618 5618 5618 5618 5617 5617 5616 5616 5615 5614 5614 5613 5612 5611 5610 5609 5608 5607 5606 5605 5603 5602 5600 5598 5597 5595 5593 5591 5589 5587
5587 5587 5588 5589 5590 5592 5594 5596 5597 5598 5599 5599 5600 5600 5601 5601 5602 5603 5604 5605 5607 5607 5608 5609 5610 5611 5612 5612 5613 5613 5614 5614 5615 5615 5615 5616 5616 5616 5617 5617 5616 5616 5616 5615 5615 5614 5613 5613 5612 5611 5611 5609 5608 5607 5607 5605 5604 5603 5602 5600 5598 5597 5595 5593 5592 5589 5587 5585 5583
5590 5591 5592 5594 5595 5597 5597 5597 5598 5598 5599 5600 5601 5601 5602 5602 5603 5604 5604 5606 5607 5608 5608 5609 5610 5610 5611 5611 5612 5612 5613 5613 5613 5614 5614 5615 5615 5615 5615 5615 5614 5614 5613 5613 5612 5612 5611 5610 5610 5609 5608 5607 5606 5605 5603 5602 5601 5600 5598 5597 5595 5593 5592 5590 5587 5586 5583 5581 5579